Tracking 19170 objects as of 23-May-2018
HD Live streaming from Space Station
objects crossing your sky now

FENGYUN 1C DEB

Track FENGYUN 1C DEB now!
10-day predictions


NORAD ID: 30388
Int'l Code: 1999-025ADB
Perigee: 681.4 km
Apogee: 1,024.5 km
Inclination: 98.9 °
Period: 101.8 minutes
Semi major axis: 7223 km
RCS: 0.0219 m2 (small)
Launch date: May 10, 1999
Source: People's Republic of China (PRC)
Launch site: Taiyaun Space Center, China (TSC)

Note: This is SATELLITE DEBRIS
aabbcc
Your satellite tracking list
Your tracking list is empty




NASA's NSSDC Master Catalog

Two Line Element Set (TLE):
1 30388U 99025ADB 18142.59142331 +.00000050 +00000-0 +38860-4 0  9995
2 30388 098.8965 176.4118 0237459 039.3868 089.1173 14.13967655583703
Source of the keplerian elements: AFSPC